Regional Weather Roundup
Issued by NWS

Home | Current Version | Previous Version | Text Only | Print | Product List | Glossary Off
Versions: 1 2 3 4 5 6 7 8 9 10 11 12 13 14 15 16 17 18 19 20 21 22 23 24 25 26 27 28 29 30 31 32 33 34 35 36 37 38 39 40 41 42 43 44 45 46 47 48 49 50

000
ASUS45 KBOU 300407
RWRCO

WEATHER ROUNDUP FOR COLORADO
NATIONAL WEATHER SERVICE DENVER/BOULDER CO
1000 PM MDT TUE JUL 29 2014

NOTE: "FAIR" INDICATES FEW OR NO CLOUDS BELOW 12000 FEET WITH NO
SIGNIFICANT WEATHER AND/OR OBSTRUCTIONS TO VISIBILITY.

COZ001>005-013-030-031-300500-
...NORTHWEST COLORADO...

CITY           SKY/WX    TMP DP  RH WIND       PRES   REMARKS
CRAIG          LGT RAIN  54  32  43 S3        30.29S
HAYDEN         CLOUDY    55  54  94 E3        30.31S
MEEKER         CLOUDY    57  53  86 N8        30.30F
MOUNT WERNER   NOT AVBL
STEAMBOAT SPGS CLOUDY    56  54  95 S3        30.34R
WALDEN         CLOUDY    54  52  94 NW6       30.39R
$$

COZ006>008-011-300500-
...WEST CENTRAL VALLEYS...

CITY           SKY/WX    TMP DP  RH WIND       PRES   REMARKS
GRAND JUNCTION CLOUDY    62  59  90 S5        30.22S
MONTROSE       CLOUDY    63  57  81 W10       30.30R
EAGLE          CLOUDY    63  57  82 CALM      30.30R
RIFLE          LGT RAIN  60  58  92 NE7       30.28R
DELTA          CLOUDY    67  60  78 S7        30.25R
NUCLA          CLOUDY    63  59  88 CALM      30.31R
$$

COZ017>023-064>068-300500-
...SOUTHWEST COLORADO...

CITY           SKY/WX    TMP DP  RH WIND       PRES   REMARKS
DURANGO        CLEAR     66  48  52 S3        30.27R
CORTEZ         PTCLDY    64  53  67 N6        30.24R
PAGOSA SPRINGS CLEAR     62  51  68 CALM      30.35R
TELLURIDE      NOT AVBL
WOLF CREEK PAS NOT AVBL
$$

COZ009-010-012-014-032>034-037-058>063-300500-
...CENTRAL COLORADO...

CITY           SKY/WX    TMP DP  RH WIND       PRES   REMARKS
ASPEN          LGT RAIN  57  53  86 S6        30.37R
BUENA VISTA    CLOUDY    62  48  59 NW5       30.35R
COPPER MTN     CLOUDY    46  43  87 SW7       30.64R THUNDER
BERTHOUD PASS  TSTM      37  28  70 NW12      30.67S
COTTONWOOD PAS CLOUDY    61  43  51 W8        30.48R THUNDER
GUNNISON       CLOUDY    57  48  72 N8        30.40R
KREMMLING      MOCLDY    55  52  88 CALM      30.35R THUNDER
LEADVILLE      MOCLDY    50  46  86 CALM      30.49R
MONARCH PASS   MOCLDY    45  43  93 W13       30.74R THUNDER
SALIDA         MOCLDY    63  53  70 SW10      30.39R
SUNLIGHT       TSTM      48  48 100 W3        30.57F VSB 1/2
WILKERSON PASS CLOUDY    46  45  93 N10G21    30.61R
$$

COZ069>075-300500-
...SAN LUIS VALLEY/SANGRE DE CRISTO MOUNTAINS...

CITY           SKY/WX    TMP DP  RH WIND       PRES   REMARKS
ALAMOSA        CLOUDY    57  55  93 SW8       30.35R
LA VETA PASS   CLOUDY    50  45  81 W6        30.51R THUNDER
SAGUACHE       MOCLDY    55  54  94 CALM      30.38R
$$

COZ035-036-038>040-300500-
...NORTHERN COLORADO FRONT RANGE...

CITY           SKY/WX    TMP DP  RH WIND       PRES   REMARKS
DENVER INTL AP HVY RAIN  60  58  92 SW6       30.28R FOG
DMNS CITY PARK   N/A     62  60  94 SE3       30.27R
AURORA         LGT RAIN  59  59 100 N3        30.29R
FRONT RANGE AP HVY RAIN  61  61 100 CALM      30.29R
ERIE MUNI ARPT CLOUDY    63  61  93 N6        30.26R
BOULDER MUN AP RAIN      63  61  94 NE6       30.27R
CENTENNIAL     LGT RAIN  59  57  93 NE6       30.29R
BROOMFIELD     LGT RAIN  63  61  94 N6        30.29R
FORT COLLINS   CLOUDY    61  57  88 N13       30.29R
LONGMONT       CLOUDY    65  61  87 N9        30.29R
$$

COZ041-046-047-076>085-087-088-300500-
...PIKES PEAK/PALMER DIVIDE AND SOUTHERN FOOTHILLS...

CITY           SKY/WX    TMP DP  RH WIND       PRES   REMARKS
COLO. SPRINGS  LGT RAIN  59  57  93 NE10      30.29R
A. F. ACADEMY  LGT RAIN  59  58  99 W3        30.31R
ELLICOTT       CLOUDY    58  57  97 E12       30.25F
FALCON         LGT RAIN  56  55  98 N6        30.33S
FORT CARSON    LGT RAIN  59  59  99 N8        30.27R
LIMON          LGT RAIN  59  56  89 W3        30.25R
MONUMENT HILL  LGT RAIN  54  52  94 CALM      30.33R
TRINIDAD       CLOUDY    69  58  67 W6        30.18R
$$

COZ042>045-048>051-090-091-300500-
...NORTHEAST COLORADO...

CITY           SKY/WX    TMP DP  RH WIND       PRES   REMARKS
GREELEY ARPT   CLOUDY    61  54  77 NE13G18   30.27R
AKRON          HVY RAIN  59  58  96 E12       30.26R FOG
BURLINGTON     LGT RAIN  66  62  87 SW10      30.17R
WRAY             N/A    N/A N/A N/A W6        30.22R
STERLING       RAIN      64  64 100 N7        30.25R
HOLYOKE        RAIN      68  63  83 SW10      30.23R
FORT MORGAN    CLOUDY    62  60  94 NE7       30.26R
$$

COZ086-089-092>099-300500-
...SOUTHEAST COLORADO...

CITY           SKY/WX    TMP DP  RH WIND       PRES   REMARKS
PUEBLO         LGT RAIN  63  61  93 E9        30.18S
LA JUNTA       CLOUDY    66  64  93 E14G23    30.12R
LAMAR          LGT RAIN  68  63  84 N7        30.11R
SPRINGFIELD      N/A     68  65  90 S16       30.11F
$$



USA.gov is the U.S. government's official web portal to all federal, state and local government web resources and services.